OpenBCM V1.13 (Linux)

Packet Radio Mailbox

DB0FHN

[JN59NK Nuernberg]

 Login: GUEST





  
OZ1LQH > KEP      24.05.14 08:20l 79 Lines 3314 Bytes #999 (0) @ WW
BID : ARLK040
Read: DK3UZ DL3SEU GUEST DK7NR
Subj: ARLK040 Keplerian data
Path: DB0FHN<HB9EAS<DB0ZAV<YT7MPB<VE2PKT<VK4TUB<F1OYP<SV1UY<GB7CIP<ON0AR<
      OZ5BBS
Sent: 140523/2101Z @:OZ5BBS.FYN.DNK.EU #:45037 [Odense] $:ARLK040
From: OZ1LQH@OZ5BBS.FYN.DNK.EU
To  : KEP@WW

ZCZC SK40
QST de W1AW  
Keplerian Bulletin 40  ARLK040
From ARRL Headquarters
Newington, CT  May 23, 2014
To all radio amateurs 

SB KEP ARL ARLK040
ARLK040 Keplerian data

Special thanks to AMSAT-NA (AMSAT.ORG) for the following Keplerian
data.

Decode 2-line elsets with the following key:
1 AAAAAU 00  0  0 BBBBB.BBBBBBBB  .CCCCCCCC  00000-0  00000-0 0  DDDZ
2 AAAAA EEE.EEEE FFF.FFFF GGGGGGG HHH.HHHH III.IIII JJ.JJJJJJJJKKKKKZ
KEY: A-CATALOGNUM B-EPOCHTIME C-DECAY D-ELSETNUM E-INCLINATION F-RAAN
G-ECCENTRICITY H-ARGPERIGEE I-MNANOM J-MNMOTION K-ORBITNUM Z-CHECKSUM

0 AO-07
1 07530U 74089B   14142.83781331 -.00000048  00000-0 -29003-4 0  9700
2 07530 101.4691 125.5061 0011799 347.0262 076.0085 12.53605190808341
0 AO-16
1 20439U 90005D   14143.45254383  .00000080  00000-0  45628-4 0   290
2 20439 098.5062 081.2553 0010120 227.4604 246.3430 14.32352879270941
0 AO-27
1 22825U 93061C   14142.92411265  .00000081  00000-0  48858-4 0  6724
2 22825 098.6604 089.1416 0008536 020.2473 025.5443 14.29716534 77170
0 FO-29
1 24278U 96046B   14142.78175022 -.00000014  00000-0  21897-4 0  3803
2 24278 098.5125 160.1439 0350355 003.7604 044.0664 13.53024116877237
0 ISS
1 25544U 98067A   14143.68039383  .00013289  00000-0  23623-3 0  3461
2 25544 051.6483 221.0745 0003377 033.4284 063.7769 15.50500205887525
0 NO-44
1 26931U 01043C   14142.37878325  .00000054  00000-0  52896-4 0  6073
2 26931 067.0519 105.0069 0006164 282.8227 077.2185 14.30112715659915
0 SO-50
1 27607U 02058C   14143.45267540  .00000431  00000-0  85855-4 0  3990
2 27607 064.5572 307.7423 0044536 018.6314 341.6405 14.73751257613830
0 CO-55
1 27844U 03031E   14143.51589149  .00000201  00000-0  11174-3 0  9302
2 27844 098.6974 152.6439 0009172 354.2100 168.2729 14.21499175565075
0 RS-22
1 27939U 03042A   14143.44319382  .00000866  00000-0  16906-3 0  5111
2 27939 097.8093 318.8220 0013130 181.5201 178.5977 14.65184017569100
0 VO-52
1 28650U 05017B   14143.09540819  .00001263  00000-0  15176-3 0  7446
2 28650 097.5593 149.3186 0023935 237.9349 121.9543 14.85431925489505
0 CO-58
1 28895U 05043F   14142.54297696  .00000657  00000-0  14002-3 0  7732
2 28895 097.8368 345.7415 0018873 092.8702 267.4661 14.61864573456506
0 CO-65
1 32785U 08021C   14143.38498317  .00001017  00000-0  12451-3 0  9560
2 32785 097.7016 195.4941 0012359 268.3062 220.3718 14.85248320328347
0 COMPASS 1
1 32787U 08021E   14143.14853739  .00002794  00000-0  31133-3 0  9368
2 32787 097.7044 197.3942 0012319 261.2573 098.7249 14.87809363328468
0 DO-64
1 32789U 08021G   14143.15351681  .00004573  00000-0  44283-3 0  9626
2 32789 097.7233 204.6188 0011158 243.6526 169.1153 14.93178438328765
0 RS-30
1 32953U 08025A   14143.27977514  .00000010  00000-0  00000+0 0  9442
2 32953 082.5044 216.6946 0018634 206.8338 153.1794 12.43047335272163
0 KKS-1
1 33499U 09002H   14142.83556677  .00000619  00000-0  10362-3 0  3634
2 33499 098.1859 270.3379 0008874 355.8484 123.5108 14.73360671286111
0 HINCUBE
1 39445U 13066AF  14143.11388748  .00001868  00000-0  25687-3 0  1484
2 39445 097.7741 214.6158 0061191 325.8651 033.8538 14.78216992 25339

Keplerian bulletins are transmitted twice weekly from W1AW.  The
next scheduled transmission of these data will be Tuesday, May 27,
2014, at 2230z on Baudot and BPSK31.
NNNN


Read previous mail | Read next mail


 14.07.2026 22:59:39lGo back Go up